Hourly Data Report for July 12, 2019

PITT MEADOWS CS
BRITISH COLUMBIA
Current Station Operator: ECCC - MSC

49°12'29.964" N
122°41'24.076" W
5.00 m
1106178
71775
WMM

Download Data

Hourly Data (July 2019)
Hourly Data Report for July 12, 2019
TIME
LST
Temp Definition
°C
Dew Point Definition
°C
Rel Hum Definition
%
Precip. Amount Definition
mm

Wind Dir Definition
10's deg

Wind Spd Definition
km/h
Visibility Definition
km
Stn Press Definition
kPa
Hmdx Definition


Wind Chill Definition


Weather Definition


00:00 14.3 12.6 89 0.0 0 1   101.86     LegendNANA
01:00 13.8 12.6 93 0.0   0   101.83     LegendNANA
02:00 13.0 12.0 93 0.0 0 1   101.82     LegendNANA
03:00 12.3 11.3 94 0.0 0 1   101.80     LegendNANA
04:00 12.2 11.4 94 0.0 0 1   101.80     LegendNANA
05:00 13.4 12.7 96 0.0   0   101.79     LegendNANA
06:00 15.1 14.0 94 0.0 0 1   101.83     LegendNANA
07:00 16.7 13.4 81 0.5 17 2   101.82     LegendNANA
08:00 17.9 14.0 78 0.7 10 2   101.77     LegendNANA
09:00 18.3 14.4 78 0.7 21 4   101.73     LegendNANA
10:00 20.1 14.8 72 0.6 25 3   101.72     LegendNANA
11:00 22.3 13.8 59 0.9 21 5   101.70 26   LegendNANA
12:00 23.7 13.3 52 0.8 23 4   101.65 27   LegendNANA
13:00 24.5 14.1 52 0.6 25 7   101.60 28   LegendNANA
14:00 24.8 11.4 43 0.9 22 8   101.57 27   LegendNANA
15:00 25.3 10.2 39 0.3 17 6   101.53 27   LegendNANA
16:00 25.2 9.8 38 0.1 18 8   101.49 26   LegendNANA
17:00 24.8 11.2 42 0.1 20 7   101.44 27   LegendNANA
18:00 24.3 11.8 46 0.0 21 7   101.44 26   LegendNANA
19:00 22.7 11.7 50 0.1 22 9   101.45 25   LegendNANA
20:00 21.1 11.7 55 0.0 20 4   101.44     LegendNANA
21:00 18.4 12.9 70 0.0 9 3   101.45     LegendNANA
22:00 17.5 13.6 78 0.0 8 2   101.45     LegendNANA
23:00 16.1 13.2 83 0.0   0   101.45     LegendNANA

Notes on Data Quality.

Legend

  • E = Estimated
  • M = Missing
  • NA = Not Available*
  • [empty] = Indicates an unobserved value
Date modified: